Regional Weather Roundup
Issued by NWS

Home | Current Version | Previous Version | Text Only | Print | Product List | Glossary On
Versions: 1 2 3 4 5 6 7 8 9 10 11 12 13 14 15 16 17 18 19 20 21 22 23 24 25 26 27 28 29 30 31 32 33 34 35 36 37 38 39 40 41 42 43 44 45 46 47 48 49 50
000
ASUS43 KLSX 291859
RWRMO

WEATHER SUMMARY FOR MISSOURI
NATIONAL WEATHER SERVICE SPRINGFIELD MO
200 PM CDT FRI MAY 29 2015

NOTE: "FAIR" INDICATES FEW OR NO CLOUDS BELOW 12,000 FEET WITH NO
       SIGNIFICANT WEATHER AND/OR OBSTRUCTIONS TO VISIBILITY.
       CURRENT SKY AND/OR WEATHER CONDITIONS ARE NOT AVAILABLE FOR
       CHILLICOTHE AND FARMINGTON.

MOZ001>031-035>038-043-044-053-054-292000-
...NORTHERN AND WESTERN MISSOURI...

CITY           SKY/WX    TMP DP  RH WIND       PRES   REMARKS
KANSAS CTY INT LGT RAIN  68  66  93 SW7       30.00F
KANSAS C DTWN  LGT RAIN  70  65  84 S5        30.00F
LEE`S SUMMIT   LGT RAIN  67  65  93 S5        30.01F
ST JOSEPH      LGT RAIN  68  65  90 S10       29.98F
CHILLICOTHE      N/A     71  65  81 VRB7      30.01S
KIRKSVILLE     CLOUDY    73  66  78 SW9       30.02R

$$
MOZ066>068-077>081-088>096-101>105-292000-
...SOUTHWEST MISSOURI...

CITY           SKY/WX    TMP DP  RH WIND       PRES   REMARKS
SPRINGFIELD    CLOUDY    74  66  76 NE10      30.02F
JOPLIN         CLOUDY    71  65  81 E6        30.01F

$$
MOZ032>034-039>042-045>050-055>058-069>072-292000-
...CENTRAL MISSOURI...

CITY           SKY/WX    TMP DP  RH WIND       PRES   REMARKS
COLUMBIA       LGT RAIN  71  66  84 SW9       30.05F
JEFFERSON CITY LGT RAIN  72  65  78 W5        30.03F
ROLLA          LGT RAIN  69  64  84 SW5       30.04F
SEDALIA        CLOUDY    71  65  81 SW8       30.04S
WHITEMAN AFB   CLOUDY    68  64  88 W6        30.01F
OSAGE BEACH    CLOUDY    72  63  73 CALM      30.03F

$$
MOZ051-052-059>065-292000-
...EAST CENTRAL MISSOURI...

CITY           SKY/WX    TMP DP  RH WIND       PRES   REMARKS
ST LOUIS INTL  PTSUNNY   82  66  58 SW7       30.01F
SPIRIT OF STL  PTSUNNY   82  68  62 W12       29.99F
ST CHARLES     MOSUNNY   84  66  54 SW13G20   29.98F

$$
MOZ072>076-082>087-097>100-106>115-292000-
...SOUTH CENTRAL AND SOUTHEAST MISSOURI...

CITY           SKY/WX    TMP DP  RH WIND       PRES   REMARKS
CAPE GIRARDEAU PTSUNNY   82  68  62 S10       30.03F
FARMINGTON     MOSUNNY   82  68  61 S13       30.06F
POPLAR BLUFF   MOSUNNY   84  68  58 S9        30.02F
WEST PLAINS    PTSUNNY   80  67  64 S8        30.04F

$$



USA.gov is the U.S. government's official web portal to all federal, state and local government web resources and services.